SCOUT A DEB, 3214

Orbit data source: Space-Track

SCOUT A DEB, 3214 is space debris in LEO originally from a launch on Sat, 02 Mar 1968 UTC launched from the Air Force Western Test Range (AFWTR). Debris objects in space refer to the collection of defunct objects orbiting the Earth. Examples of debris include non-operational satellites, rocket bodies, and fragments generated from explosions, collisions, or faulty payload assembly.

Loading next visibility...
Identifier
3214, 1968-012D
Orbit
LEO
Country
Flag of USUS
Related business
Manufacturer
Unknown
Mission
Spacecraft
Bus & Motor
Unknown
Mass
Unknown
Launch date (UTC)
1968-03-02 (58 years ago)
Launch vehicle
Unknown
Launch site
Air Force Western Test Range (AFWTR)
Object type
Payload
Rocket body
Debris
Shape & HBR
Unknown
Radar Cross Section
Small (<0.1 m²)

Expand to show TLE details & history
Last TLE update: 15 hours ago

TLE from 15 hours ago
0 SCOUT A DEB
1 03214U 68012D   25245.61159317  .00000199  00000-0  37705-3 0  9992
2 03214  89.8264 108.5497 0185724 340.2476  72.4381 13.29185477546339
Epoch: 2025-09-02T14:40Z
TLE epoch observation values (Epoch: 2025-09-02T14:40:41.649Z)
Latitude
54.82173°
Longitude
-93.37915°
Altitude
1,119.151 km
Speed
7.317 km/s
True Right ascension
07h 15m 10s
True Declination
54° 40' 03"
Sunlit
Object was in daylight at epoch
Visualization orbit readout
Latitude
Unknown
Longitude
Unknown
Altitude
Unknown
Speed
Unknown
Apparent Right ascension
Unknown
Apparent Declination
Unknown
Sunlit
N/A
Visualization observer readout
Local Sidereal Time
21:52:22
Azimuth
Unknown
Elevation
Unknown
Doppler factor
Unknown
Orbital elements
Apogee altitude
1,286.674 km
Perigee altitude
1,007.158 km
Semi-major axis
7,525.053 km
Eccentricity
0.01857
Inclination
89.8264°
RAAN
108.5497°
Arg. of periapsis
340.2476°
True anomaly
74.48102°
Mean anomaly
72.4381°
Eccentric anomaly
73.45818°
Mean motion
3.3249 °/min
Orbital period
108.27 mins
BSTAR
0.00037705
Loading maneuver chart data...
Computing Atmospheric mass density...
Loading historical data...
Loading historical data...
Loading historical data...
Loading historical data...
Loading historical data...
Loading historical data...
Loading historical data...

Documentation

Showing up to 5 results
|